Location: Byszew
(52.1813°N, 19.2693°E)
Time: 20:34:32
(UTC+00:00)

NOAA 18 - Pass Details

Date: 06 July 2022
Orbit: 839 x 860 km, 98.9° (Epoch: 17 August)

Event Time Altitude Azimuth Distance (km) Brightness Sun altitude
Exits shadow 19:55:42 - 157° (SSE) 2,808 7.3 -6.3°
Reaches altitude 10° 19:56:31 10° 157° (SSE) 2,484 7.0 -6.4°
Maximum altitude 20:02:02 80° 72° (ENE) 879 5.3 -6.9°
Drops below altitude 10° 20:07:38 10° 346° (NNW) 2,511 8.9 -7.4°
Sets 20:10:01 0° 345° (NNW) 3,453 9.9 -7.7°
